Year,Month,Day,Hour,Minute,Value (Times are PST for temperature in C)
2010,07,23,00,00,15.90
2010,07,23,00,01,15.80
2010,07,23,00,02,15.80
2010,07,23,00,03,15.80
2010,07,23,00,04,15.80
2010,07,23,00,05,15.80
2010,07,23,00,06,15.80
2010,07,23,00,07,15.80
2010,07,23,00,08,15.70
2010,07,23,00,09,15.70
2010,07,23,00,10,15.70
2010,07,23,00,11,15.70
2010,07,23,00,12,15.70
2010,07,23,00,13,15.70
2010,07,23,00,14,15.60
2010,07,23,00,15,15.60
2010,07,23,00,16,15.60
2010,07,23,00,17,15.50
2010,07,23,00,18,15.50
2010,07,23,00,19,15.50
2010,07,23,00,20,15.40
2010,07,23,00,21,15.40
2010,07,23,00,22,15.40
2010,07,23,00,23,15.30
2010,07,23,00,24,15.30
2010,07,23,00,25,15.30
2010,07,23,00,26,15.30
2010,07,23,00,27,15.20
2010,07,23,00,28,15.20
2010,07,23,00,29,15.20
2010,07,23,00,30,15.10
2010,07,23,00,31,15.10
2010,07,23,00,32,15.10
2010,07,23,00,33,15.00
2010,07,23,00,34,15.00
2010,07,23,00,35,15.00
2010,07,23,00,36,15.00
2010,07,23,00,37,15.00
2010,07,23,00,38,15.00
2010,07,23,00,39,15.00
2010,07,23,00,40,15.00
2010,07,23,00,41,15.00
2010,07,23,00,42,15.00
2010,07,23,00,43,15.00
2010,07,23,00,44,15.00
2010,07,23,00,45,15.00
2010,07,23,00,46,15.00
2010,07,23,00,47,15.00
2010,07,23,00,48,15.00
2010,07,23,00,49,15.00
2010,07,23,00,50,15.00
2010,07,23,00,51,15.00
2010,07,23,00,52,15.00
2010,07,23,00,53,15.00
2010,07,23,00,54,15.00
2010,07,23,00,55,15.00
2010,07,23,00,56,15.00
2010,07,23,00,57,15.00
2010,07,23,00,58,15.00
2010,07,23,00,59,15.00
2010,07,23,01,00,15.00
2010,07,23,01,01,15.00
2010,07,23,01,02,15.00
2010,07,23,01,03,14.90
2010,07,23,01,04,14.90
2010,07,23,01,05,14.90
2010,07,23,01,06,14.80
2010,07,23,01,07,14.80
2010,07,23,01,08,14.80
2010,07,23,01,09,14.80
2010,07,23,01,10,14.80
2010,07,23,01,11,14.80
2010,07,23,01,12,14.80
2010,07,23,01,13,14.70
2010,07,23,01,14,14.70
2010,07,23,01,15,14.70
2010,07,23,01,16,14.70
2010,07,23,01,17,14.70
2010,07,23,01,18,14.70
2010,07,23,01,19,14.70
2010,07,23,01,20,14.70
2010,07,23,01,21,14.70
2010,07,23,01,22,14.60
2010,07,23,01,23,14.60
2010,07,23,01,24,14.60
2010,07,23,01,25,14.60
2010,07,23,01,26,14.50
2010,07,23,01,27,14.50
2010,07,23,01,28,14.40
2010,07,23,01,29,14.40
2010,07,23,01,30,14.30
2010,07,23,01,31,14.30
2010,07,23,01,32,14.30
2010,07,23,01,33,14.20
2010,07,23,01,34,14.20
2010,07,23,01,35,14.20
2010,07,23,01,36,14.20
2010,07,23,01,37,14.10
2010,07,23,01,38,14.10
2010,07,23,01,39,14.10
2010,07,23,01,40,14.00
2010,07,23,01,41,14.00
2010,07,23,01,42,14.00
2010,07,23,01,43,14.00
2010,07,23,01,44,13.90
2010,07,23,01,45,13.90
2010,07,23,01,46,13.90
2010,07,23,01,47,13.90
2010,07,23,01,48,13.90
2010,07,23,01,49,13.90
2010,07,23,01,50,13.80
2010,07,23,01,51,13.80
2010,07,23,01,52,13.80
2010,07,23,01,53,13.80
2010,07,23,01,54,13.80
2010,07,23,01,55,13.80
2010,07,23,01,56,13.80
2010,07,23,01,57,13.80
2010,07,23,01,58,13.80
2010,07,23,01,59,13.80
2010,07,23,02,00,13.80
2010,07,23,02,01,13.80
2010,07,23,02,02,13.80
2010,07,23,02,03,13.70
2010,07,23,02,04,13.70
2010,07,23,02,05,13.70
2010,07,23,02,06,13.70
2010,07,23,02,07,13.70
2010,07,23,02,08,13.70
2010,07,23,02,09,13.70
2010,07,23,02,10,13.70
2010,07,23,02,11,13.80
2010,07,23,02,12,13.80
2010,07,23,02,13,13.80
2010,07,23,02,14,13.80
2010,07,23,02,15,13.80
2010,07,23,02,16,13.80
2010,07,23,02,17,13.80
2010,07,23,02,18,13.80
2010,07,23,02,19,13.80
2010,07,23,02,20,13.80
2010,07,23,02,21,13.80
2010,07,23,02,22,13.70
2010,07,23,02,23,13.70
2010,07,23,02,24,13.70
2010,07,23,02,25,13.70
2010,07,23,02,26,13.70
2010,07,23,02,27,13.60
2010,07,23,02,28,13.60
2010,07,23,02,29,13.60
2010,07,23,02,30,13.60
2010,07,23,02,31,13.60
2010,07,23,02,32,13.60
2010,07,23,02,33,13.60
2010,07,23,02,34,13.60
2010,07,23,02,35,13.60
2010,07,23,02,36,13.60
2010,07,23,02,37,13.60
2010,07,23,02,38,13.60
2010,07,23,02,39,13.60
2010,07,23,02,40,13.60
2010,07,23,02,41,13.60
2010,07,23,02,42,13.60
2010,07,23,02,43,13.60
2010,07,23,02,44,13.60
2010,07,23,02,45,13.60
2010,07,23,02,46,13.60
2010,07,23,02,47,13.60
2010,07,23,02,48,13.60
2010,07,23,02,49,13.50
2010,07,23,02,50,13.50
2010,07,23,02,51,13.50
2010,07,23,02,52,13.50
2010,07,23,02,53,13.40
2010,07,23,02,54,13.40
2010,07,23,02,55,13.40
2010,07,23,02,56,13.40
2010,07,23,02,57,13.40
2010,07,23,02,58,13.30
2010,07,23,02,59,13.30
2010,07,23,03,00,13.30
2010,07,23,03,01,13.30
2010,07,23,03,02,13.40
2010,07,23,03,03,13.40
2010,07,23,03,04,13.40
2010,07,23,03,05,13.40
2010,07,23,03,06,13.40
2010,07,23,03,07,13.40
2010,07,23,03,08,13.40
2010,07,23,03,09,13.40
2010,07,23,03,10,13.40
2010,07,23,03,11,13.40
2010,07,23,03,12,13.50
2010,07,23,03,13,13.50
2010,07,23,03,14,13.50
2010,07,23,03,15,13.50
2010,07,23,03,16,13.50
2010,07,23,03,17,13.60
2010,07,23,03,18,13.60
2010,07,23,03,19,13.60
2010,07,23,03,20,13.60
2010,07,23,03,21,13.60
2010,07,23,03,22,13.60
2010,07,23,03,23,13.60
2010,07,23,03,24,13.60
2010,07,23,03,25,13.60
2010,07,23,03,26,13.60
2010,07,23,03,27,13.60
2010,07,23,03,28,13.60
2010,07,23,03,29,13.50
2010,07,23,03,30,13.50
2010,07,23,03,31,13.50
2010,07,23,03,32,13.40
2010,07,23,03,33,13.40
2010,07,23,03,34,13.40
2010,07,23,03,35,13.40
2010,07,23,03,36,13.40
2010,07,23,03,37,13.40
2010,07,23,03,38,13.40
2010,07,23,03,39,13.30
2010,07,23,03,40,13.30
2010,07,23,03,41,13.30
2010,07,23,03,42,13.30
2010,07,23,03,43,13.30
2010,07,23,03,44,13.30
2010,07,23,03,45,13.30
2010,07,23,03,46,13.30
2010,07,23,03,47,13.30
2010,07,23,03,48,13.30
2010,07,23,03,49,13.20
2010,07,23,03,50,13.20
2010,07,23,03,51,13.20
2010,07,23,03,52,13.20
2010,07,23,03,53,13.20
2010,07,23,03,54,13.20
2010,07,23,03,55,13.20
2010,07,23,03,56,13.10
2010,07,23,03,57,13.10
2010,07,23,03,58,13.10
2010,07,23,03,59,13.10
2010,07,23,04,00,13.10
2010,07,23,04,01,13.10
2010,07,23,04,02,13.10
2010,07,23,04,03,13.10
2010,07,23,04,04,13.10
2010,07,23,04,05,13.10
2010,07,23,04,06,13.10
2010,07,23,04,07,13.10
2010,07,23,04,08,13.10
2010,07,23,04,09,13.10
2010,07,23,04,10,13.10
2010,07,23,04,11,13.10
2010,07,23,04,12,13.10
2010,07,23,04,13,13.10
2010,07,23,04,14,13.00
2010,07,23,04,15,13.00
2010,07,23,04,16,13.00
2010,07,23,04,17,12.90
2010,07,23,04,18,12.90
2010,07,23,04,19,12.90
2010,07,23,04,20,12.80
2010,07,23,04,21,12.80
2010,07,23,04,22,12.80
2010,07,23,04,23,12.80
2010,07,23,04,24,12.80
2010,07,23,04,25,12.80
2010,07,23,04,26,12.80
2010,07,23,04,27,12.80
2010,07,23,04,28,12.80
2010,07,23,04,29,12.80
2010,07,23,04,30,12.80
2010,07,23,04,31,12.80
2010,07,23,04,32,12.80
2010,07,23,04,33,12.80
2010,07,23,04,34,12.70
2010,07,23,04,35,12.70
2010,07,23,04,36,12.70
2010,07,23,04,37,12.70
2010,07,23,04,38,12.70
2010,07,23,04,39,12.60
2010,07,23,04,40,12.60
2010,07,23,04,41,12.60
2010,07,23,04,42,12.60
2010,07,23,04,43,12.60
2010,07,23,04,44,12.60
2010,07,23,04,45,12.60
2010,07,23,04,46,12.60
2010,07,23,04,47,12.60
2010,07,23,04,48,12.60
2010,07,23,04,49,12.70
2010,07,23,04,50,12.70
2010,07,23,04,51,12.60
2010,07,23,04,52,12.60
2010,07,23,04,53,12.60
2010,07,23,04,54,12.60
2010,07,23,04,55,12.60
2010,07,23,04,56,12.60
2010,07,23,04,57,12.50
2010,07,23,04,58,12.50
2010,07,23,04,59,12.40
2010,07,23,05,00,12.30
2010,07,23,05,01,12.30
2010,07,23,05,02,12.20
2010,07,23,05,03,12.20
2010,07,23,05,04,12.20
2010,07,23,05,05,12.20
2010,07,23,05,06,12.20
2010,07,23,05,07,12.20
2010,07,23,05,08,12.20
2010,07,23,05,09,12.20
2010,07,23,05,10,12.20
2010,07,23,05,11,12.20
2010,07,23,05,12,12.20
2010,07,23,05,13,12.20
2010,07,23,05,14,12.20
2010,07,23,05,15,12.20
2010,07,23,05,16,12.20
2010,07,23,05,17,12.20
2010,07,23,05,18,12.20
2010,07,23,05,19,12.20
2010,07,23,05,20,12.20
2010,07,23,05,21,12.30
2010,07,23,05,22,12.30
2010,07,23,05,23,12.30
2010,07,23,05,24,12.30
2010,07,23,05,25,12.30
2010,07,23,05,26,12.30
2010,07,23,05,27,12.30
2010,07,23,05,28,12.30
2010,07,23,05,29,12.30
2010,07,23,05,30,12.20
2010,07,23,05,31,12.20
2010,07,23,05,32,12.20
2010,07,23,05,33,12.20
2010,07,23,05,34,12.20
2010,07,23,05,35,12.20
2010,07,23,05,36,12.20
2010,07,23,05,37,12.20
2010,07,23,05,38,12.20
2010,07,23,05,39,12.20
2010,07,23,05,40,12.20
2010,07,23,05,41,12.10
2010,07,23,05,42,12.10
2010,07,23,05,43,12.10
2010,07,23,05,44,12.10
2010,07,23,05,45,12.10
2010,07,23,05,46,12.10
2010,07,23,05,47,12.10
2010,07,23,05,48,12.10
2010,07,23,05,49,12.10
2010,07,23,05,50,12.10
2010,07,23,05,51,12.10
2010,07,23,05,52,12.10
2010,07,23,05,53,12.10
2010,07,23,05,54,12.10
2010,07,23,05,55,12.20
2010,07,23,05,56,12.20
2010,07,23,05,57,12.20
2010,07,23,05,58,12.20
2010,07,23,05,59,12.20
2010,07,23,06,00,12.20
2010,07,23,06,01,12.20
2010,07,23,06,02,12.20
2010,07,23,06,03,12.20
2010,07,23,06,04,12.20
2010,07,23,06,05,12.10
2010,07,23,06,06,12.10
2010,07,23,06,07,12.10
2010,07,23,06,08,12.10
2010,07,23,06,09,12.10
2010,07,23,06,10,12.10
2010,07,23,06,11,12.10
2010,07,23,06,12,12.20
2010,07,23,06,13,12.20
2010,07,23,06,14,12.20
2010,07,23,06,15,12.20
2010,07,23,06,16,12.20
2010,07,23,06,17,12.20
2010,07,23,06,18,12.20
2010,07,23,06,19,12.20
2010,07,23,06,20,12.20
2010,07,23,06,21,12.20
2010,07,23,06,22,12.10
2010,07,23,06,23,12.10
2010,07,23,06,24,12.10
2010,07,23,06,25,12.10
2010,07,23,06,26,12.10
2010,07,23,06,27,12.10
2010,07,23,06,28,12.10
2010,07,23,06,29,12.10
2010,07,23,06,30,12.20
2010,07,23,06,31,12.20
2010,07,23,06,32,12.20
2010,07,23,06,33,12.20
2010,07,23,06,34,12.30
2010,07,23,06,35,12.30
2010,07,23,06,36,12.30
2010,07,23,06,37,12.30
2010,07,23,06,38,12.30
2010,07,23,06,39,12.40
2010,07,23,06,40,12.40
2010,07,23,06,41,12.40
2010,07,23,06,42,12.50
2010,07,23,06,43,12.60
2010,07,23,06,44,12.60
2010,07,23,06,45,12.70
2010,07,23,06,46,12.70
2010,07,23,06,47,12.80
2010,07,23,06,48,12.80
2010,07,23,06,49,12.90
2010,07,23,06,50,12.90
2010,07,23,06,51,12.90
2010,07,23,06,52,13.00
2010,07,23,06,53,13.00
2010,07,23,06,54,13.10
2010,07,23,06,55,13.10
2010,07,23,06,56,13.20
2010,07,23,06,57,13.30
2010,07,23,06,58,13.30
2010,07,23,06,59,13.40
2010,07,23,07,00,13.50
2010,07,23,07,01,13.60
2010,07,23,07,02,13.70
2010,07,23,07,03,13.80
2010,07,23,07,04,13.90
2010,07,23,07,05,13.90
2010,07,23,07,06,14.00
2010,07,23,07,07,14.10
2010,07,23,07,08,14.20
2010,07,23,07,09,14.20
2010,07,23,07,10,14.20
2010,07,23,07,11,14.20
2010,07,23,07,12,14.20
2010,07,23,07,13,14.20
2010,07,23,07,14,14.20
2010,07,23,07,15,14.20
2010,07,23,07,16,14.20
2010,07,23,07,17,14.20
2010,07,23,07,18,14.30
2010,07,23,07,19,14.30
2010,07,23,07,20,14.40
2010,07,23,07,21,14.40
2010,07,23,07,22,14.50
2010,07,23,07,23,14.60
2010,07,23,07,24,14.70
2010,07,23,07,25,14.80
2010,07,23,07,26,14.90
2010,07,23,07,27,15.00
2010,07,23,07,28,15.00
2010,07,23,07,29,15.00
2010,07,23,07,30,15.00
2010,07,23,07,31,15.00
2010,07,23,07,32,15.10
2010,07,23,07,33,15.10
2010,07,23,07,34,15.20
2010,07,23,07,35,15.30
2010,07,23,07,36,15.30
2010,07,23,07,37,15.40
2010,07,23,07,38,15.40
2010,07,23,07,39,15.40
2010,07,23,07,40,15.50
2010,07,23,07,41,15.50
2010,07,23,07,42,15.60
2010,07,23,07,43,15.60
2010,07,23,07,44,15.70
2010,07,23,07,45,15.70
2010,07,23,07,46,15.70
2010,07,23,07,47,15.70
2010,07,23,07,48,15.70
2010,07,23,07,49,15.70
2010,07,23,07,50,15.70
2010,07,23,07,51,15.70
2010,07,23,07,52,15.70
2010,07,23,07,53,15.70
2010,07,23,07,54,15.80
2010,07,23,07,55,15.80
2010,07,23,07,56,15.80
2010,07,23,07,57,15.80
2010,07,23,07,58,15.80
2010,07,23,07,59,15.80
2010,07,23,08,00,15.80
2010,07,23,08,01,15.80
2010,07,23,08,02,15.80
2010,07,23,08,03,15.80
2010,07,23,08,04,15.80
2010,07,23,08,05,15.90
2010,07,23,08,06,15.90
2010,07,23,08,07,16.00
2010,07,23,08,08,16.00
2010,07,23,08,09,16.10
2010,07,23,08,10,16.20
2010,07,23,08,11,16.30
2010,07,23,08,12,16.30
2010,07,23,08,13,16.30
2010,07,23,08,14,16.30
2010,07,23,08,15,16.30
2010,07,23,08,16,16.30
2010,07,23,08,17,16.30
2010,07,23,08,18,16.30
2010,07,23,08,19,16.30
2010,07,23,08,20,16.30
2010,07,23,08,21,16.40
2010,07,23,08,22,16.40
2010,07,23,08,23,16.50
2010,07,23,08,24,16.60
2010,07,23,08,25,16.60
2010,07,23,08,26,16.60
2010,07,23,08,27,16.50
2010,07,23,08,28,16.40
2010,07,23,08,29,16.30
2010,07,23,08,30,16.30
2010,07,23,08,31,16.30
2010,07,23,08,32,16.20
2010,07,23,08,33,16.10
2010,07,23,08,34,16.00
2010,07,23,08,35,15.90
2010,07,23,08,36,15.90
2010,07,23,08,37,15.80
2010,07,23,08,38,15.80
2010,07,23,08,39,15.90
2010,07,23,08,40,15.90
2010,07,23,08,41,16.00
2010,07,23,08,42,16.00
2010,07,23,08,43,16.10
2010,07,23,08,44,16.10
2010,07,23,08,45,16.20
2010,07,23,08,46,16.30
2010,07,23,08,47,16.30
2010,07,23,08,48,16.30
2010,07,23,08,49,16.40
2010,07,23,08,50,16.50
2010,07,23,08,51,16.50
2010,07,23,08,52,16.60
2010,07,23,08,53,16.70
2010,07,23,08,54,16.80
2010,07,23,08,55,16.80
2010,07,23,08,56,16.90
2010,07,23,08,57,16.90
2010,07,23,08,58,16.90
2010,07,23,08,59,17.00
2010,07,23,09,00,17.00
2010,07,23,09,01,16.90
2010,07,23,09,02,16.80
2010,07,23,09,03,16.70
2010,07,23,09,04,16.50
2010,07,23,09,05,16.30
2010,07,23,09,06,16.30
2010,07,23,09,07,16.20
2010,07,23,09,08,16.20
2010,07,23,09,09,16.20
2010,07,23,09,10,16.20
2010,07,23,09,11,16.20
2010,07,23,09,12,16.20
2010,07,23,09,13,16.10
2010,07,23,09,14,16.10
2010,07,23,09,15,16.20
2010,07,23,09,16,16.20
2010,07,23,09,17,16.20
2010,07,23,09,18,16.30
2010,07,23,09,19,16.30
2010,07,23,09,20,16.30
2010,07,23,09,21,16.30
2010,07,23,09,22,16.30
2010,07,23,09,23,16.30
2010,07,23,09,24,16.30
2010,07,23,09,25,16.20
2010,07,23,09,26,16.10
2010,07,23,09,27,16.10
2010,07,23,09,28,16.10
2010,07,23,09,29,16.10
2010,07,23,09,30,16.10
2010,07,23,09,31,16.20
2010,07,23,09,32,16.20
2010,07,23,09,33,16.20
2010,07,23,09,34,16.20
2010,07,23,09,35,16.10
2010,07,23,09,36,16.10
2010,07,23,09,37,16.00
2010,07,23,09,38,16.00
2010,07,23,09,39,16.10
2010,07,23,09,40,16.10
2010,07,23,09,41,16.20
2010,07,23,09,42,16.20
2010,07,23,09,43,16.10
2010,07,23,09,44,16.10
2010,07,23,09,45,16.20
2010,07,23,09,46,16.20
2010,07,23,09,47,16.20
2010,07,23,09,48,16.20
2010,07,23,09,49,16.20
2010,07,23,09,50,16.20
2010,07,23,09,51,16.20
2010,07,23,09,52,16.20
2010,07,23,09,53,16.30
2010,07,23,09,54,16.30
2010,07,23,09,55,16.30
2010,07,23,09,56,16.30
2010,07,23,09,57,16.30
2010,07,23,09,58,16.30
2010,07,23,09,59,16.20
2010,07,23,10,00,16.20
2010,07,23,10,01,16.20
2010,07,23,10,02,16.10
2010,07,23,10,03,16.10
2010,07,23,10,04,16.10
2010,07,23,10,05,16.10
2010,07,23,10,06,16.10
2010,07,23,10,07,16.10
2010,07,23,10,08,16.20
2010,07,23,10,09,16.30
2010,07,23,10,10,16.30
2010,07,23,10,11,16.50
2010,07,23,10,12,16.60
2010,07,23,10,13,16.70
2010,07,23,10,14,16.70
2010,07,23,10,15,16.70
2010,07,23,10,16,16.60
2010,07,23,10,17,16.60
2010,07,23,10,18,16.70
2010,07,23,10,19,16.70
2010,07,23,10,20,16.70
2010,07,23,10,21,16.70
2010,07,23,10,22,16.70
2010,07,23,10,23,16.80
2010,07,23,10,24,16.80
2010,07,23,10,25,16.90
2010,07,23,10,26,16.90
2010,07,23,10,27,16.90
2010,07,23,10,28,16.90
2010,07,23,10,29,16.90
2010,07,23,10,30,16.90
2010,07,23,10,31,16.90
2010,07,23,10,32,16.80
2010,07,23,10,33,16.80
2010,07,23,10,34,16.80
2010,07,23,10,35,16.90
2010,07,23,10,36,17.00
2010,07,23,10,37,17.00
2010,07,23,10,38,17.10
2010,07,23,10,39,17.10
2010,07,23,10,40,17.10
2010,07,23,10,41,17.10
2010,07,23,10,42,17.00
2010,07,23,10,43,17.00
2010,07,23,10,44,17.00
2010,07,23,10,45,17.10
2010,07,23,10,46,17.10
2010,07,23,10,47,17.00
2010,07,23,10,48,16.90
2010,07,23,10,49,16.80
2010,07,23,10,50,16.80
2010,07,23,10,51,16.70
2010,07,23,10,52,16.80
2010,07,23,10,53,16.80
2010,07,23,10,54,16.80
2010,07,23,10,55,16.90
2010,07,23,10,56,17.00
2010,07,23,10,57,17.10
2010,07,23,10,58,17.20
2010,07,23,10,59,17.20
2010,07,23,11,00,17.30
2010,07,23,11,01,17.40
2010,07,23,11,02,17.40
2010,07,23,11,03,17.30
2010,07,23,11,04,17.20
2010,07,23,11,05,17.20
2010,07,23,11,06,17.20
2010,07,23,11,07,17.20
2010,07,23,11,08,17.30
2010,07,23,11,09,17.30
2010,07,23,11,10,17.30
2010,07,23,11,11,17.40
2010,07,23,11,12,17.40
2010,07,23,11,13,17.40
2010,07,23,11,14,17.40
2010,07,23,11,15,17.50
2010,07,23,11,16,17.60
2010,07,23,11,17,17.60
2010,07,23,11,18,17.70
2010,07,23,11,19,17.70
2010,07,23,11,20,17.80
2010,07,23,11,21,17.80
2010,07,23,11,22,17.80
2010,07,23,11,23,17.80
2010,07,23,11,24,17.80
2010,07,23,11,25,17.90
2010,07,23,11,26,18.00
2010,07,23,11,27,18.10
2010,07,23,11,28,18.20
2010,07,23,11,29,18.20
2010,07,23,11,30,18.30
2010,07,23,11,31,18.30
2010,07,23,11,32,18.30
2010,07,23,11,33,18.30
2010,07,23,11,34,18.20
2010,07,23,11,35,18.10
2010,07,23,11,36,18.00
2010,07,23,11,37,17.90
2010,07,23,11,38,17.90
2010,07,23,11,39,17.90
2010,07,23,11,40,17.90
2010,07,23,11,41,17.90
2010,07,23,11,42,17.90
2010,07,23,11,43,17.90
2010,07,23,11,44,18.00
2010,07,23,11,45,18.00
2010,07,23,11,46,18.10
2010,07,23,11,47,18.20
2010,07,23,11,48,18.20
2010,07,23,11,49,18.10
2010,07,23,11,50,18.00
2010,07,23,11,51,18.00
2010,07,23,11,52,17.90
2010,07,23,11,53,17.90
2010,07,23,11,54,17.90
2010,07,23,11,55,17.90
2010,07,23,11,56,17.90
2010,07,23,11,57,17.80
2010,07,23,11,58,17.80
2010,07,23,11,59,17.80
2010,07,23,12,00,17.70
2010,07,23,12,01,17.70
2010,07,23,12,02,17.70
2010,07,23,12,03,17.70
2010,07,23,12,04,17.70
2010,07,23,12,05,17.70
2010,07,23,12,06,17.70
2010,07,23,12,07,17.70
2010,07,23,12,08,17.80
2010,07,23,12,09,17.90
2010,07,23,12,10,18.00
2010,07,23,12,11,18.10
2010,07,23,12,12,18.10
2010,07,23,12,13,18.10
2010,07,23,12,14,18.10
2010,07,23,12,15,18.10
2010,07,23,12,16,18.30
2010,07,23,12,17,18.40
2010,07,23,12,18,18.40
2010,07,23,12,19,18.50
2010,07,23,12,20,18.60
2010,07,23,12,21,18.60
2010,07,23,12,22,18.70
2010,07,23,12,23,18.70
2010,07,23,12,24,18.80
2010,07,23,12,25,18.80
2010,07,23,12,26,18.80
2010,07,23,12,27,18.80
2010,07,23,12,28,18.80
2010,07,23,12,29,18.80
2010,07,23,12,30,18.80
2010,07,23,12,31,18.90
2010,07,23,12,32,19.00
2010,07,23,12,33,19.00
2010,07,23,12,34,18.90
2010,07,23,12,35,18.90
2010,07,23,12,36,18.90
2010,07,23,12,37,18.90
2010,07,23,12,38,19.00
2010,07,23,12,39,19.00
2010,07,23,12,40,19.10
2010,07,23,12,41,19.10
2010,07,23,12,42,19.10
2010,07,23,12,43,19.10
2010,07,23,12,44,19.00
2010,07,23,12,45,18.90
2010,07,23,12,46,18.90
2010,07,23,12,47,18.90
2010,07,23,12,48,18.90
2010,07,23,12,49,19.10
2010,07,23,12,50,19.10
2010,07,23,12,51,19.10
2010,07,23,12,52,19.20
2010,07,23,12,53,19.20
2010,07,23,12,54,19.20
2010,07,23,12,55,19.10
2010,07,23,12,56,19.10
2010,07,23,12,57,19.10
2010,07,23,12,58,19.10
2010,07,23,12,59,19.00
2010,07,23,13,00,18.90
2010,07,23,13,01,18.90
2010,07,23,13,02,18.90
2010,07,23,13,03,19.00
2010,07,23,13,04,19.00
2010,07,23,13,05,19.10
2010,07,23,13,06,19.20
2010,07,23,13,07,19.30
2010,07,23,13,08,19.30
2010,07,23,13,09,19.40
2010,07,23,13,10,19.40
2010,07,23,13,11,19.40
2010,07,23,13,12,19.40
2010,07,23,13,13,19.40
2010,07,23,13,14,19.30
2010,07,23,13,15,19.30
2010,07,23,13,16,19.30
2010,07,23,13,17,19.30
2010,07,23,13,18,19.40
2010,07,23,13,19,19.40
2010,07,23,13,20,19.50
2010,07,23,13,21,19.50
2010,07,23,13,22,19.40
2010,07,23,13,23,19.30
2010,07,23,13,24,19.20
2010,07,23,13,25,19.20
2010,07,23,13,26,19.20
2010,07,23,13,27,19.30
2010,07,23,13,28,19.30
2010,07,23,13,29,19.30
2010,07,23,13,30,19.30
2010,07,23,13,31,19.30
2010,07,23,13,32,19.40
2010,07,23,13,33,19.40
2010,07,23,13,34,19.50
2010,07,23,13,35,19.50
2010,07,23,13,36,19.50
2010,07,23,13,37,19.60
2010,07,23,13,38,19.50
2010,07,23,13,39,19.60
2010,07,23,13,40,19.60
2010,07,23,13,41,19.70
2010,07,23,13,42,19.70
2010,07,23,13,43,19.80
2010,07,23,13,44,19.80
2010,07,23,13,45,19.80
2010,07,23,13,46,19.70
2010,07,23,13,47,19.70
2010,07,23,13,48,19.70
2010,07,23,13,49,19.60
2010,07,23,13,50,19.60
2010,07,23,13,51,19.60
2010,07,23,13,52,19.60
2010,07,23,13,53,19.60
2010,07,23,13,54,19.60
2010,07,23,13,55,19.60
2010,07,23,13,56,19.60
2010,07,23,13,57,19.70
2010,07,23,13,58,19.70
2010,07,23,13,59,19.80
2010,07,23,14,00,19.90
2010,07,23,14,01,20.00
2010,07,23,14,02,20.10
2010,07,23,14,03,20.20
2010,07,23,14,04,20.30
2010,07,23,14,05,20.30
2010,07,23,14,06,20.30
2010,07,23,14,07,20.20
2010,07,23,14,08,20.10
2010,07,23,14,09,20.00
2010,07,23,14,10,19.90
2010,07,23,14,11,19.90
2010,07,23,14,12,19.90
2010,07,23,14,13,20.00
2010,07,23,14,14,20.10
2010,07,23,14,15,20.20
2010,07,23,14,16,20.30
2010,07,23,14,17,20.40
2010,07,23,14,18,20.50
2010,07,23,14,19,20.50
2010,07,23,14,20,20.60
2010,07,23,14,21,20.70
2010,07,23,14,22,20.90
2010,07,23,14,23,20.90
2010,07,23,14,24,21.00
2010,07,23,14,25,21.00
2010,07,23,14,26,21.00
2010,07,23,14,27,20.90
2010,07,23,14,28,20.90
2010,07,23,14,29,20.90
2010,07,23,14,30,20.90
2010,07,23,14,31,20.90
2010,07,23,14,32,20.90
2010,07,23,14,33,20.90
2010,07,23,14,34,20.80
2010,07,23,14,35,20.70
2010,07,23,14,36,20.70
2010,07,23,14,37,20.70
2010,07,23,14,38,20.70
2010,07,23,14,39,20.70
2010,07,23,14,40,20.80
2010,07,23,14,41,20.90
2010,07,23,14,42,21.00
2010,07,23,14,43,21.10
2010,07,23,14,44,21.20
2010,07,23,14,45,21.20
2010,07,23,14,46,21.30
2010,07,23,14,47,21.30
2010,07,23,14,48,21.30
2010,07,23,14,49,21.40
2010,07,23,14,50,21.40
2010,07,23,14,51,21.50
2010,07,23,14,52,21.60
2010,07,23,14,53,21.60
2010,07,23,14,54,21.70
2010,07,23,14,55,21.60
2010,07,23,14,56,21.50
2010,07,23,14,57,21.50
2010,07,23,14,58,21.60
2010,07,23,14,59,21.60
2010,07,23,15,00,21.60
2010,07,23,15,01,21.60
2010,07,23,15,02,21.60
2010,07,23,15,03,21.60
2010,07,23,15,04,21.60
2010,07,23,15,05,21.50
2010,07,23,15,06,21.50
2010,07,23,15,07,21.40
2010,07,23,15,08,21.30
2010,07,23,15,09,21.30
2010,07,23,15,10,21.30
2010,07,23,15,11,21.20
2010,07,23,15,12,21.10
2010,07,23,15,13,21.10
2010,07,23,15,14,21.10
2010,07,23,15,15,21.10
2010,07,23,15,16,21.00
2010,07,23,15,17,21.00
2010,07,23,15,18,20.90
2010,07,23,15,19,20.90
2010,07,23,15,20,20.90
2010,07,23,15,21,20.80
2010,07,23,15,22,20.80
2010,07,23,15,23,20.80
2010,07,23,15,24,20.80
2010,07,23,15,25,20.80
2010,07,23,15,26,20.80
2010,07,23,15,27,20.80
2010,07,23,15,28,20.80
2010,07,23,15,29,20.90
2010,07,23,15,30,20.90
2010,07,23,15,31,20.90
2010,07,23,15,32,21.00
2010,07,23,15,33,21.00
2010,07,23,15,34,21.00
2010,07,23,15,35,21.10
2010,07,23,15,36,21.10
2010,07,23,15,37,21.10
2010,07,23,15,38,21.10
2010,07,23,15,39,21.10
2010,07,23,15,40,21.10
2010,07,23,15,41,21.10
2010,07,23,15,42,21.10
2010,07,23,15,43,21.20
2010,07,23,15,44,21.30
2010,07,23,15,45,21.30
2010,07,23,15,46,21.30
2010,07,23,15,47,21.40
2010,07,23,15,48,21.40
2010,07,23,15,49,21.40
2010,07,23,15,50,21.40
2010,07,23,15,51,21.40
2010,07,23,15,52,21.40
2010,07,23,15,53,21.40
2010,07,23,15,54,21.40
2010,07,23,15,55,21.50
2010,07,23,15,56,21.50
2010,07,23,15,57,21.60
2010,07,23,15,58,21.60
2010,07,23,15,59,21.50
2010,07,23,16,00,21.60
2010,07,23,16,01,21.50
2010,07,23,16,02,21.50
2010,07,23,16,03,21.50
2010,07,23,16,04,21.50
2010,07,23,16,05,21.50
2010,07,23,16,06,21.60
2010,07,23,16,07,21.60
2010,07,23,16,08,21.70
2010,07,23,16,09,21.70
2010,07,23,16,10,21.80
2010,07,23,16,11,21.80
2010,07,23,16,12,21.90
2010,07,23,16,13,21.90
2010,07,23,16,14,21.90
2010,07,23,16,15,21.90
2010,07,23,16,16,22.00
2010,07,23,16,17,22.00
2010,07,23,16,18,21.90
2010,07,23,16,19,21.80
2010,07,23,16,20,21.80
2010,07,23,16,21,21.80
2010,07,23,16,22,21.80
2010,07,23,16,23,21.80
2010,07,23,16,24,21.80
2010,07,23,16,25,21.90
2010,07,23,16,26,22.00
2010,07,23,16,27,22.10
2010,07,23,16,28,22.10
2010,07,23,16,29,22.20
2010,07,23,16,30,22.10
2010,07,23,16,31,22.10
2010,07,23,16,32,22.10
2010,07,23,16,33,22.20
2010,07,23,16,34,22.20
2010,07,23,16,35,22.20
2010,07,23,16,36,22.30
2010,07,23,16,37,22.30
2010,07,23,16,38,22.30
2010,07,23,16,39,22.20
2010,07,23,16,40,22.30
2010,07,23,16,41,22.20
2010,07,23,16,42,22.20
2010,07,23,16,43,22.10
2010,07,23,16,44,22.10
2010,07,23,16,45,22.10
2010,07,23,16,46,22.00
2010,07,23,16,47,22.00
2010,07,23,16,48,22.00
2010,07,23,16,49,22.00
2010,07,23,16,50,22.10
2010,07,23,16,51,22.10
2010,07,23,16,52,22.10
2010,07,23,16,53,22.10
2010,07,23,16,54,22.20
2010,07,23,16,55,22.20
2010,07,23,16,56,22.20
2010,07,23,16,57,22.30
2010,07,23,16,58,22.30
2010,07,23,16,59,22.30
2010,07,23,17,00,22.40
2010,07,23,17,01,22.50
2010,07,23,17,02,22.60
2010,07,23,17,03,22.70
2010,07,23,17,04,22.70
2010,07,23,17,05,22.60
2010,07,23,17,06,22.60
2010,07,23,17,07,22.60
2010,07,23,17,08,22.60
2010,07,23,17,09,22.60
2010,07,23,17,10,22.60
2010,07,23,17,11,22.60
2010,07,23,17,12,22.50
2010,07,23,17,13,22.40
2010,07,23,17,14,22.40
2010,07,23,17,15,22.30
2010,07,23,17,16,22.30
2010,07,23,17,17,22.30
2010,07,23,17,18,22.40
2010,07,23,17,19,22.40